WJA1840 KBUF-CYUL

Flight info

Callsign WJA1840
Flight time 0h 53m
Altitude 37000
Route MIGLO HABBS7
Aircraft B736/M-SDE2E3FGHIRWXY/LB1

Departure

Time 2026-05-07 00:30
Airport Buffalo Niagara International Airport (KBUF)

Arrival

Time 2026-05-07 01:23
Airport Montreal / Pierre Elliott Trudeau International Airport (CYUL)
Time Latitude Longitude Altitude Speed Heading
2026-05-07 00:11 42.93714 -78.72959 711 ft 0 kts 177°
2026-05-07 00:20 42.93739 -78.72963 716 ft 4 kts 167°
2026-05-07 00:20 42.93763 -78.72976 716 ft 4 kts 137°
2026-05-07 00:21 42.93770 -78.72999 714 ft 2 kts 45°
2026-05-07 00:21 42.93769 -78.73001 714 ft 0 kts 44°
2026-05-07 00:25 42.93777 -78.72990 713 ft 7 kts 45°
2026-05-07 00:25 42.93792 -78.72922 713 ft 8 kts 104°
2026-05-07 00:25 42.93765 -78.72858 713 ft 8 kts 122°
2026-05-07 00:26 42.93738 -78.72798 717 ft 7 kts 118°
2026-05-07 00:26 42.93727 -78.72731 714 ft 7 kts 97°
2026-05-07 00:26 42.93722 -78.72661 717 ft 8 kts 104°
2026-05-07 00:26 42.93691 -78.72588 714 ft 10 kts 126°
2026-05-07 00:27 42.93645 -78.72504 718 ft 12 kts 127°
2026-05-07 00:27 42.93589 -78.72401 717 ft 15 kts 127°
2026-05-07 00:27 42.93523 -78.72282 716 ft 16 kts 127°
2026-05-07 00:27 42.93461 -78.72160 717 ft 15 kts 108°
2026-05-07 00:28 42.93465 -78.72115 717 ft 0 kts 65°
2026-05-07 00:28 42.93472 -78.72100 718 ft 7 kts 51°
2026-05-07 00:28 42.93526 -78.72072 719 ft 9 kts 348°
2026-05-07 00:29 42.93576 -78.72134 719 ft 14 kts 305°
2026-05-07 00:29 42.93739 -78.72396 714 ft 56 kts 302°
2026-05-07 00:30 42.95353 -78.75279 2312 ft 171 kts 314°
2026-05-07 00:30 42.96281 -78.76400 3638 ft 191 kts 319°
2026-05-07 00:30 42.97328 -78.77617 4564 ft 203 kts 314°
2026-05-07 00:30 42.98289 -78.79149 4882 ft 232 kts 303°
2026-05-07 00:31 42.99132 -78.80992 4986 ft 229 kts 300°
2026-05-07 00:31 42.99939 -78.82861 4979 ft 229 kts 300°
2026-05-07 00:31 43.00765 -78.84728 4991 ft 229 kts 301°
2026-05-07 00:31 43.01618 -78.86564 5011 ft 229 kts 306°
2026-05-07 00:32 43.02896 -78.87835 5005 ft 233 kts 339°
2026-05-07 00:32 43.04501 -78.88035 5008 ft 240 kts
2026-05-07 00:32 43.06084 -78.87259 4993 ft 248 kts 29°
2026-05-07 00:32 43.07412 -78.85646 5118 ft 267 kts 44°
2026-05-07 00:33 43.08675 -78.83663 6141 ft 281 kts 47°
2026-05-07 00:33 43.09939 -78.81575 7382 ft 289 kts 48°
2026-05-07 00:33 43.11237 -78.79415 8562 ft 299 kts 47°
2026-05-07 00:33 43.12586 -78.77178 9734 ft 310 kts 47°
2026-05-07 00:34 43.13992 -78.74859 10703 ft 325 kts 46°
2026-05-07 00:34 43.15478 -78.72420 11563 ft 340 kts 46°
2026-05-07 00:34 43.17017 -78.69900 12621 ft 348 kts 47°
2026-05-07 00:34 43.18586 -78.67332 13741 ft 355 kts 47°
2026-05-07 00:35 43.20189 -78.64711 14670 ft 364 kts 46°
2026-05-07 00:35 43.21839 -78.62016 15529 ft 374 kts 46°
2026-05-07 00:35 43.23533 -78.59250 16408 ft 384 kts 47°
2026-05-07 00:35 43.25272 -78.56409 17305 ft 393 kts 47°
2026-05-07 00:36 43.27050 -78.53503 18217 ft 402 kts 47°
2026-05-07 00:36 43.28862 -78.50537 19072 ft 408 kts 47°
2026-05-07 00:36 43.30685 -78.47547 20080 ft 409 kts 47°
2026-05-07 00:36 43.32518 -78.44538 21064 ft 412 kts 47°
2026-05-07 00:37 43.34365 -78.41504 21994 ft 417 kts 47°
2026-05-07 00:37 43.36236 -78.38431 22933 ft 421 kts 47°
2026-05-07 00:37 43.38123 -78.35326 23809 ft 426 kts 47°
2026-05-07 00:37 43.40042 -78.32168 24484 ft 434 kts 47°
2026-05-07 00:38 43.41993 -78.28956 25142 ft 442 kts 46°
2026-05-07 00:38 43.43979 -78.25682 25824 ft 449 kts 46°
2026-05-07 00:38 43.45964 -78.22403 26524 ft 455 kts 46°
2026-05-07 00:38 43.48003 -78.19032 27213 ft 461 kts 46°
2026-05-07 00:39 43.50070 -78.15609 27898 ft 467 kts 46°
2026-05-07 00:39 43.52157 -78.12149 28566 ft 473 kts 46°
2026-05-07 00:39 43.54274 -78.08636 29217 ft 479 kts 46°
2026-05-07 00:39 43.56413 -78.05082 29848 ft 484 kts 46°
2026-05-07 00:40 43.58573 -78.01488 30392 ft 490 kts 46°
2026-05-07 00:40 43.60760 -77.97846 30847 ft 496 kts 45°
2026-05-07 00:40 43.62978 -77.94148 31291 ft 502 kts 45°
2026-05-07 00:40 43.65218 -77.90407 31728 ft 508 kts 45°
2026-05-07 00:41 43.67479 -77.86628 32154 ft 513 kts 45°
2026-05-07 00:41 43.69761 -77.82806 32566 ft 518 kts 45°
2026-05-07 00:41 43.72066 -77.78942 32963 ft 523 kts 45°
2026-05-07 00:41 43.74392 -77.75036 33407 ft 527 kts 45°
2026-05-07 00:42 43.76722 -77.71115 33948 ft 527 kts 44°
2026-05-07 00:42 43.79043 -77.67201 34465 ft 526 kts 45°
2026-05-07 00:42 43.81357 -77.63294 35050 ft 522 kts 45°
2026-05-07 00:42 43.83654 -77.59409 35619 ft 519 kts 45°
2026-05-07 00:43 43.85944 -77.55536 35938 ft 521 kts 45°
2026-05-07 00:43 43.88244 -77.51646 35926 ft 521 kts 45°
2026-05-07 00:43 43.92812 -77.43900 35945 ft 518 kts 45°
2026-05-07 00:44 43.97372 -77.36147 35936 ft 517 kts 45°
2026-05-07 00:44 44.01886 -77.28452 35938 ft 517 kts 46°
2026-05-07 00:45 44.06419 -77.20702 35939 ft 516 kts 46°
2026-05-07 00:45 44.10972 -77.12898 35934 ft 516 kts 46°
2026-05-07 00:46 44.15458 -77.05187 35931 ft 515 kts 46°
2026-05-07 00:46 44.19961 -76.97426 35922 ft 515 kts 46°
2026-05-07 00:47 44.24456 -76.89656 35921 ft 514 kts 46°
2026-05-07 00:47 44.28936 -76.81894 35920 ft 513 kts 46°
2026-05-07 00:48 44.32679 -76.75392 35918 ft 512 kts 47°
2026-05-07 00:48 44.37106 -76.67683 35922 ft 512 kts 47°
2026-05-07 00:49 44.41555 -76.59914 35919 ft 511 kts 47°
2026-05-07 00:49 44.45993 -76.52143 35913 ft 511 kts 47°
2026-05-07 00:50 44.50424 -76.44363 35914 ft 510 kts 47°
2026-05-07 00:50 44.54842 -76.36585 35902 ft 509 kts 47°
2026-05-07 00:51 44.59206 -76.28877 35566 ft 497 kts 47°
2026-05-07 00:51 44.61355 -76.25077 34924 ft 497 kts 47°
2026-05-07 00:51 44.63467 -76.21232 34185 ft 501 kts 53°
2026-05-07 00:52 44.65085 -76.16862 33338 ft 506 kts 67°
2026-05-07 00:52 44.66368 -76.12276 32637 ft 502 kts 69°
2026-05-07 00:52 44.67595 -76.07706 31988 ft 497 kts 69°
2026-05-07 00:52 44.68831 -76.03272 31321 ft 492 kts 69°
2026-05-07 00:53 44.70119 -75.98836 30625 ft 488 kts 68°
2026-05-07 00:53 44.71392 -75.94428 29913 ft 483 kts 70°
2026-05-07 00:53 44.72586 -75.90033 28945 ft 480 kts 71°
2026-05-07 00:53 44.73749 -75.85617 27731 ft 483 kts 71°
2026-05-07 00:54 44.74911 -75.81163 26506 ft 486 kts 71°
2026-05-07 00:54 44.76082 -75.76689 25344 ft 488 kts 71°
2026-05-07 00:54 44.77264 -75.72202 24249 ft 489 kts 71°
2026-05-07 00:54 44.78448 -75.67729 23229 ft 487 kts 71°
2026-05-07 00:55 44.79627 -75.63279 22221 ft 482 kts 70°
2026-05-07 00:55 44.80791 -75.58881 21350 ft 475 kts 70°
2026-05-07 00:55 44.81933 -75.54554 20495 ft 469 kts 70°
2026-05-07 00:55 44.83062 -75.50269 19625 ft 464 kts 70°
2026-05-07 00:56 44.84180 -75.46024 18766 ft 460 kts 70°
2026-05-07 00:56 44.85333 -75.41833 17918 ft 457 kts 69°
2026-05-07 00:56 44.86511 -75.37692 17070 ft 451 kts 68°
2026-05-07 00:56 44.87676 -75.33631 16336 ft 443 kts 68°
2026-05-07 00:57 44.88805 -75.29683 15625 ft 435 kts 68°
2026-05-07 00:57 44.89925 -75.25743 14903 ft 429 kts 68°
2026-05-07 00:57 44.91021 -75.21863 14205 ft 423 kts 68°
2026-05-07 00:57 44.92100 -75.18024 13520 ft 417 kts 67°
2026-05-07 00:58 44.93157 -75.14256 12822 ft 409 kts 67°
2026-05-07 00:58 44.94191 -75.10564 12370 ft 396 kts 67°
2026-05-07 00:58 44.95181 -75.07020 12105 ft 379 kts 67°
2026-05-07 00:58 44.96129 -75.03624 11841 ft 365 kts 67°
2026-05-07 00:59 44.97929 -74.97169 11329 ft 342 kts 67°
2026-05-07 00:59 44.98825 -74.94113 11075 ft 332 kts 63°
2026-05-07 00:59 44.99896 -74.91259 10828 ft 326 kts 58°
2026-05-07 01:00 45.01031 -74.88501 10582 ft 323 kts 57°
2026-05-07 01:00 45.02167 -74.85771 10344 ft 321 kts 58°
2026-05-07 01:00 45.03272 -74.83084 10096 ft 319 kts 58°
2026-05-07 01:00 45.04374 -74.80370 9858 ft 315 kts 58°
2026-05-07 01:01 45.05443 -74.77706 9584 ft 308 kts 59°
2026-05-07 01:01 45.06483 -74.75099 9313 ft 301 kts 59°
2026-05-07 01:01 45.07498 -74.72548 9028 ft 295 kts 59°
2026-05-07 01:01 45.08498 -74.70030 8752 ft 290 kts 59°
2026-05-07 01:02 45.09478 -74.67557 8484 ft 287 kts 59°
2026-05-07 01:02 45.10452 -74.65097 8226 ft 285 kts 59°
2026-05-07 01:02 45.11421 -74.62648 8082 ft 284 kts 59°
2026-05-07 01:02 45.12412 -74.60219 8033 ft 285 kts 57°
2026-05-07 01:03 45.13455 -74.57835 8035 ft 284 kts 56°
2026-05-07 01:03 45.14505 -74.55467 8021 ft 284 kts 56°
2026-05-07 01:03 45.15555 -74.53094 8017 ft 284 kts 56°
2026-05-07 01:03 45.16600 -74.50720 8013 ft 284 kts 56°
2026-05-07 01:04 45.17643 -74.48340 8013 ft 284 kts 56°
2026-05-07 01:04 45.18670 -74.45990 8015 ft 284 kts 56°
2026-05-07 01:04 45.19724 -74.43573 8009 ft 284 kts 56°
2026-05-07 01:04 45.20762 -74.41188 8008 ft 284 kts 56°
2026-05-07 01:05 45.21798 -74.38801 8010 ft 284 kts 57°
2026-05-07 01:05 45.22831 -74.36411 8012 ft 284 kts 57°
2026-05-07 01:05 45.23865 -74.34019 8013 ft 284 kts 57°
2026-05-07 01:05 45.24899 -74.31624 8009 ft 284 kts 57°
2026-05-07 01:06 45.25932 -74.29231 8009 ft 284 kts 57°
2026-05-07 01:06 45.26950 -74.26868 8007 ft 284 kts 57°
2026-05-07 01:06 45.27982 -74.24472 8008 ft 284 kts 57°
2026-05-07 01:06 45.29011 -74.22082 8001 ft 284 kts 57°
2026-05-07 01:07 45.29707 -74.20464 8004 ft 284 kts 57°
2026-05-07 01:07 45.30580 -74.18433 8003 ft 284 kts 57°
2026-05-07 01:07 45.31610 -74.16034 8009 ft 284 kts 57°
2026-05-07 01:07 45.32639 -74.13638 8001 ft 284 kts 57°
2026-05-07 01:08 45.33670 -74.11236 8006 ft 284 kts 57°
2026-05-07 01:08 45.34702 -74.08828 8013 ft 290 kts 57°
2026-05-07 01:08 45.35761 -74.06361 8003 ft 292 kts 56°
2026-05-07 01:08 45.37031 -74.04159 8003 ft 284 kts 42°
2026-05-07 01:09 45.38486 -74.02284 8004 ft 279 kts 38°
2026-05-07 01:09 45.39949 -74.00485 7998 ft 278 kts 38°
2026-05-07 01:09 45.41399 -73.98668 8007 ft 277 kts 39°
2026-05-07 01:09 45.42833 -73.96833 8013 ft 277 kts 40°
2026-05-07 01:10 45.44262 -73.94984 8012 ft 278 kts 40°
2026-05-07 01:10 45.45671 -73.93152 8014 ft 278 kts 40°
2026-05-07 01:10 45.47094 -73.91299 8008 ft 276 kts 40°
2026-05-07 01:10 45.48474 -73.89495 7994 ft 261 kts 40°
2026-05-07 01:11 45.49778 -73.87791 7976 ft 248 kts 40°
2026-05-07 01:11 45.51031 -73.86153 7830 ft 242 kts 40°
2026-05-07 01:11 45.52313 -73.84610 7542 ft 240 kts 27°
2026-05-07 01:11 45.53900 -73.83770 6733 ft 256 kts 19°
2026-05-07 01:12 45.55357 -73.82112 5925 ft 281 kts 56°
2026-05-07 01:12 45.56090 -73.79572 5538 ft 278 kts 62°
2026-05-07 01:12 45.57343 -73.77541 5175 ft 271 kts 37°
2026-05-07 01:12 45.58787 -73.75824 4790 ft 269 kts 38°
2026-05-07 01:13 45.60192 -73.74084 4453 ft 266 kts 39°
2026-05-07 01:13 45.61551 -73.72347 4289 ft 257 kts 39°
2026-05-07 01:13 45.62845 -73.70663 4145 ft 247 kts 39°
2026-05-07 01:13 45.64091 -73.69028 4035 ft 238 kts 39°
2026-05-07 01:14 45.65280 -73.67466 3993 ft 227 kts 39°
2026-05-07 01:14 45.66434 -73.65949 3996 ft 224 kts 39°
2026-05-07 01:14 45.67561 -73.64465 3990 ft 216 kts 39°
2026-05-07 01:14 45.68653 -73.63026 3991 ft 212 kts 39°
2026-05-07 01:15 45.69743 -73.61591 4007 ft 213 kts 38°
2026-05-07 01:15 45.70890 -73.60292 3999 ft 216 kts 42°
2026-05-07 01:15 45.71598 -73.58357 4011 ft 223 kts 78°
2026-05-07 01:15 45.71443 -73.56162 4014 ft 226 kts 113°
2026-05-07 01:16 45.70533 -73.54350 4021 ft 226 kts 134°
2026-05-07 01:16 45.69436 -73.52732 4013 ft 227 kts 136°
2026-05-07 01:16 45.68225 -73.51315 3991 ft 225 kts 160°
2026-05-07 01:16 45.66755 -73.51196 4010 ft 213 kts 202°
2026-05-07 01:17 45.65467 -73.52165 4029 ft 206 kts 214°
2026-05-07 01:17 45.64297 -73.53241 4015 ft 189 kts 218°
2026-05-07 01:17 45.63271 -73.54260 3985 ft 170 kts 220°
2026-05-07 01:17 45.62363 -73.55279 3928 ft 165 kts 224°
2026-05-07 01:18 45.61497 -73.56351 3696 ft 164 kts 226°
2026-05-07 01:18 45.60666 -73.57417 3488 ft 160 kts 226°
2026-05-07 01:18 45.59849 -73.58480 3278 ft 158 kts 227°
2026-05-07 01:18 45.59041 -73.59537 3064 ft 157 kts 227°
2026-05-07 01:19 45.58236 -73.60592 2851 ft 157 kts 227°
2026-05-07 01:19 45.57436 -73.61641 2625 ft 156 kts 227°
2026-05-07 01:19 45.56642 -73.62682 2427 ft 154 kts 227°
2026-05-07 01:19 45.55852 -73.63718 2213 ft 154 kts 227°
2026-05-07 01:20 45.55067 -73.64748 1981 ft 152 kts 226°
2026-05-07 01:20 45.54294 -73.65762 1788 ft 150 kts 226°
2026-05-07 01:20 45.53550 -73.66736 1595 ft 144 kts 226°
2026-05-07 01:20 45.52820 -73.67695 1380 ft 136 kts 226°
2026-05-07 01:21 45.52142 -73.68584 1221 ft 130 kts 225°
2026-05-07 01:21 45.51491 -73.69440 1067 ft 127 kts 225°
2026-05-07 01:21 45.50830 -73.70295 903 ft 132 kts 221°
2026-05-07 01:21 45.50147 -73.71157 665 ft 130 kts 225°
2026-05-07 01:22 45.49507 -73.72049 457 ft 129 kts 221°
2026-05-07 01:22 45.48844 -73.72901 293 ft 129 kts 224°
2026-05-07 01:22 45.48187 -73.73763 146 ft 117 kts 223°
2026-05-07 01:22 45.47666 -73.74447 111 ft 89 kts 225°
2026-05-07 01:23 45.47388 -73.74825 111 ft 24 kts 222°
2026-05-07 01:23 45.47211 -73.74945 111 ft 23 kts 195°
2026-05-07 01:23 45.47079 -73.74989 110 ft 19 kts 193°
2026-05-07 01:23 45.46951 -73.75033 109 ft 19 kts 191°
2026-05-07 01:24 45.46825 -73.75046 108 ft 18 kts 176°
2026-05-07 01:24 45.46702 -73.75031 107 ft 17 kts 177°
2026-05-07 01:24 45.46583 -73.75022 106 ft 17 kts 176°
2026-05-07 01:24 45.46468 -73.75012 105 ft 16 kts 176°
2026-05-07 01:25 45.46358 -73.75008 105 ft 16 kts 179°
2026-05-07 01:25 45.46251 -73.75001 104 ft 15 kts 176°
2026-05-07 01:25 45.46159 -73.74953 103 ft 15 kts 112°
2026-05-07 01:25 45.46157 -73.74810 103 ft 14 kts 87°
2026-05-07 01:26 45.46163 -73.74673 103 ft 14 kts 87°
2026-05-07 01:26 45.46133 -73.74554 103 ft 13 kts 136°
2026-05-07 01:26 45.46051 -73.74512 103 ft 13 kts 176°
2026-05-07 01:26 45.45971 -73.74542 103 ft 12 kts 235°
2026-05-07 01:27 45.45957 -73.74660 104 ft 12 kts 275°
2026-05-07 01:27 45.45976 -73.74763 103 ft 9 kts 285°
2026-05-07 01:27 45.45977 -73.74834 104 ft 5 kts 244°
2026-05-07 01:27 45.45958 -73.74848 104 ft 3 kts 188°
2026-05-07 01:28 45.45944 -73.74849 104 ft 0 kts 180°
2026-05-07 01:28 45.45941 -73.74848 104 ft 1 kts 179°
2026-05-07 01:28 45.45937 -73.74848 104 ft 1 kts 179°
2026-05-07 01:28 45.45935 -73.74848 104 ft 0 kts 178°